Flight Track Log - Related Links

Times and Time Zones

All times are in EDT time to prevent confusion due to time zone crossing. See the ASH2834 flight status page for this flight to view local times or setup timezone preferences in your user account.

Time Position Orientation Groundspeed Altitude Reporting Facility
EDT Latitude Longitude Course Direction KTS MPH feet Rate Location/Type
Sun 12:53:38 AM 33.4333 -112.0333 144° Southeast 141 162 2,200  Level Phoenix TRACON
Sun 12:54:06 AM 33.4283 -112.0442 241° Southwest 155 178 2,500 1,500 Climbing Albuquerque Center
Sun 12:55:06 AM 33.4072 -112.1150 250° West 228 262 4,400 2,600 Climbing Albuquerque Center
Sun 12:56:00 AM 33.0453 -111.9318 164° South  Level FlightAware Approximate
Sun 12:56:06 AM 33.3703 -112.1892 239° Southwest 267 307 7,700  Level Albuquerque Center
Sun 12:57:00 AM 32.9164 -111.9110 164° South  Level FlightAware Approximate
Sun 12:57:07 AM 33.3019 -112.1811 174° South 256 295 8,000  Level Albuquerque Center
Sun 12:58:00 AM 32.8047 -111.8326 144° Southeast  Level FlightAware Approximate
Sun 12:58:07 AM 33.2264 -112.1331 152° Southeast 258 297 9,700  Level Albuquerque Center
Sun 12:59:07 AM 33.1578 -112.0883 151° Southeast 278 320 12,300 2,430 Climbing Albuquerque Center
Sun 01:00:08 AM 33.0786 -112.0347 150° Southeast 322 371 14,600 2,231 Climbing Albuquerque Center
Sun 01:01:08 AM 32.9939 -111.9781 151° Southeast 346 398 16,800 1,150 Climbing Albuquerque Center
Sun 01:02:08 AM 32.9011 -111.9167 151° Southeast 379 436 16,900 50 Climbing Albuquerque Center
Sun 01:03:08 AM 32.8183 -111.8503 146° Southeast 361 415 16,900  Level Albuquerque Center
Sun 01:04:09 AM 32.7383 -111.7836 145° Southeast 354 407 16,900  Level Albuquerque Center
Sun 01:05:09 AM 32.6539 -111.7158 146° Southeast 366 421 16,900 -54 Level Albuquerque Center
Sun 01:06:01 AM 32.5781 -111.6553 146° Southeast 372 428 16,800 -514 Descending Albuquerque Center
Sun 01:06:19 AM 32.5528 -111.6342 145° Southeast 370 426 16,300 -2,294 Descending Albuquerque Center
Sun 01:07:09 AM 32.5033 -111.5586 128° Southeast 360 414 14,200 -2,054 Descending Albuquerque Center
Sun 01:08:10 AM 32.4397 -111.4750 132° Southeast 347 399 12,500 -1,686 Descending Albuquerque Center
Sun 01:09:10 AM 32.3833 -111.3992 131° Southeast 319 367 10,800 -1,650 Descending Albuquerque Center
Sun 01:10:10 AM 32.3311 -111.3267 130° Southeast 298 343 9,200 -1,400 Descending Albuquerque Center
Sun 01:11:10 AM 32.2850 -111.2600 129° Southeast 272 313 8,000 -595 Descending Albuquerque Center
Sun 01:12:11 AM 32.2369 -111.1922 130° Southeast 268 308 8,000 -149 Level Albuquerque Center
Sun 01:13:11 AM 32.1872 -111.1292 133° Southeast 266 306 7,700 -700 Descending Albuquerque Center
Sun 01:14:11 AM 32.1386 -111.0792 139° Southeast 243 280 6,600 -1,091 Descending Albuquerque Center
Sun 01:15:12 AM 32.0994 -111.0278 132° Southeast 226 260 5,500 -992 Descending Albuquerque Center
Sun 01:16:12 AM 32.0656 -110.9703 125° Southeast 215 247 4,600 -400 Descending Albuquerque Center
Sun 01:17:12 AM 32.0339 -110.9167 125° Southeast 214 246 4,700 -672 Climbing Albuquerque Center
Sun 01:18:26 AM 32.0836 -110.9000 16° North 171 197 3,100 -754 Descending Albuquerque Center
Sun 01:20:15 AM 32.1075 -110.9564 297° West 92 106 2,400 -385 Descending Albuquerque Center

Login

Don't have an account? Register now (free) for customized features, flight alerts, and more!